[[{"header":{"parameterUnit":"m.s-1","parameterCategory":1,"la1":30.2991,"la2":30.254,"lo1":-89.0895,"lo2":-89.0444,"dy":0.0017,"dx":0.0017,"nx":28,"ny":28,"refTime":"2026-01-04T03:00:00:Z","depth":0,"parameterNumber":2,"parameterNumberName":"U-component_of_WINDS"},"data":[0,0,0,0,0,0,0,0,0,0,0,0,0,0,0,0,0,0,0,0,0,0,0,0,0,0,0,0,0,0,0,0,0,0,0,0,0,0,0,0,0,0,0,0,0,0,0,0,0,0,0,0,0,0,0,0,0,0,-1.1282,-1.1284,0,-1.1467,-1.147,-1.1472,-1.1499,-1.1498,-1.1496,-1.1494,-1.1694,-1.1701,-1.1708,0,0,0,0,0,0,0,0,0,0,0,0,0,-1.096,-1.0965,-1.1282,-1.1284,-1.1286,-1.1467,-1.147,-1.1472,-1.15,-1.1498,-1.1496,-1.1494,-1.1692,-1.17,-1.1708,0,0,0,0,0,0,0,0,0,0,0,0,0,-1.1118,-1.0967,-1.1281,-1.1322,-1.1327,-1.1467,-1.147,-1.1473,-1.15,-1.1498,-1.1495,-1.1493,-1.1689,-1.1699,-1.1709,-1.1825,0,0,-1.1741,-1.1746,0,0,0,0,0,0,0,0,-1.1109,-1.113,-1.1313,-1.1319,-1.1325,-1.1457,-1.1429,-1.1591,-1.1501,-1.1435,-1.1494,-1.1491,-1.1618,-1.1634,-1.1675,-1.1834,-1.1842,-1.1742,-1.1748,-1.1753,-1.1756,0,0,0,0,0,0,0,-1.1098,-1.1122,-1.1355,-1.1316,-1.1323,-1.1333,-1.1353,-1.146,-1.1539,-1.144,-1.1443,-1.1464,-1.1621,-1.1665,-1.168,-1.1845,-1.1742,-1.1751,-1.1757,-1.1761,-1.211,-1.2113,0,0,0,0,0,0,-1.1078,-1.1113,-1.135,-1.1361,-1.1208,-1.1341,-1.1363,-1.1418,-1.1538,-1.1553,-1.1466,-1.1464,-1.1648,-1.1668,-1.1687,-1.1831,-1.1753,-1.1762,-1.1768,-1.2107,-1.2111,-1.2114,0,0,0,0,0,0,-1.1071,-1.1099,-1.1342,-1.1238,-1.1269,-1.1349,-1.1411,-1.1423,-1.1467,-1.1557,-1.1572,-1.1496,-1.1647,-1.1672,-1.179,-1.1838,-1.1767,-1.1776,-1.2103,-1.2108,-1.2112,-1.2119,0,0,0,0,0,0,-1.1062,-1.1096,-1.1139,-1.1238,-1.1275,-1.1439,-1.1413,-1.1428,-1.1483,-1.1483,-1.1589,-1.1604,-1.1647,-1.1774,-1.18,-1.1851,-1.1785,-1.2099,-1.2105,-1.2111,-1.2115,-1.2123,-1.213,0,0,0,0,0,-1.105,-1.1136,-1.1141,-1.117,-1.1329,-1.1442,-1.1463,-1.1508,-1.1487,-1.1532,-1.159,-1.1601,-1.1828,-1.1786,-1.1815,-1.187,-1.2097,-1.2104,-1.211,-1.2111,-1.2122,-1.213,0,0,0,0,0,0,-1.1044,-1.1149,-1.1157,-1.1276,-1.1349,-1.1446,-1.1505,-1.1518,-1.1601,-1.1598,-1.1653,-1.1677,-1.1792,-1.1843,-1.1794,-1.1989,-1.1961,-1.1974,-1.1952,-1.1962,-1.197,-1.1956,-1.1793,0,0,0,0,0,-1.1056,-1.1136,-1.1225,-1.1321,-1.1357,-1.1424,-1.1475,-1.1503,-1.1583,-1.1615,-1.1682,-1.1761,-1.1851,-1.1909,-1.1996,-1.2121,-1.2146,-1.2174,-1.2181,-1.2187,-1.2199,-1.2271,-1.2285,-1.2136,-1.2136,-1.2136,0,0,-1.1083,-1.115,-1.1198,-1.1322,-1.1382,-1.1466,-1.1451,-1.1541,-1.1605,-1.163,-1.1745,-1.1796,-1.1888,-1.201,-1.2067,-1.2056,-1.2245,-1.2196,-1.22,-1.2209,-1.2279,-1.2293,-1.2305,-1.2141,-1.214,-1.2139,0,0,-1.1175,-1.1232,-1.132,-1.1379,-1.1469,-1.1513,-1.1534,-1.1629,-1.1663,-1.1777,-1.1798,-1.1877,-1.2029,-1.2094,-1.2147,-1.2262,-1.2276,-1.2289,-1.2331,-1.24,-1.2412,-1.2422,-1.2466,-1.248,-1.23,-1.23,-1.23,0,-1.1198,-1.1322,-1.1364,-1.1453,-1.1508,-1.153,-1.1621,-1.1678,-1.1793,-1.1832,-1.1816,-1.2008,-1.2071,-1.221,-1.2237,-1.2279,-1.2307,-1.2279,-1.2406,-1.2417,-1.2428,-1.247,-1.2486,-1.2301,-1.2301,-1.2301,-1.2301,0,-1.1347,-1.1434,-1.1494,-1.1601,-1.1662,-1.1752,-1.1809,-1.1867,-1.1889,-1.1935,-1.2053,-1.2129,-1.2233,-1.2267,-1.2291,-1.2409,-1.2399,-1.2394,-1.2368,-1.2442,-1.2483,-1.2499,-1.2303,-1.2302,-1.2302,-1.2302,0,0,-1.1444,-1.157,-1.1592,-1.1641,-1.1741,-1.181,-1.1901,-1.1998,-1.2048,-1.2126,-1.2206,-1.2333,-1.2329,-1.2389,-1.242,-1.248,-1.2569,-1.2468,-1.2471,-1.2486,-1.2706,-1.2711,-1.2729,-1.2577,-1.258,-1.2583,-1.2699,0,-1.1549,-1.1708,-1.1748,-1.1885,-1.1967,-1.1989,-1.2068,-1.214,-1.2185,-1.2263,-1.2314,-1.2404,-1.239,-1.2427,-1.2487,-1.2545,-1.2614,-1.2537,-1.2655,-1.2659,-1.2634,-1.275,-1.2756,-1.2862,-1.2715,-1.2718,-1.272,0,-1.1694,-1.1772,-1.1917,-1.2006,-1.2042,-1.2112,-1.2205,-1.2278,-1.236,-1.2389,-1.2455,-1.248,-1.2578,-1.2544,-1.2682,-1.2628,-1.2679,-1.2714,-1.272,-1.2735,-1.2696,-1.2771,-1.2897,-1.2914,-1.2745,-1.2743,-1.2741,0,-1.1753,-1.1894,-1.1999,-1.204,-1.2146,-1.2195,-1.2242,-1.2321,-1.2377,-1.2459,-1.2497,-1.259,-1.2642,-1.2715,-1.2765,-1.2735,-1.29,-1.2869,-1.2929,-1.2928,-1.2966,-1.2963,-1.3105,-1.2993,-1.2993,-1.2993,-1.2993,0,-1.1868,-1.1957,-1.2026,-1.2091,-1.2191,-1.2236,-1.2335,-1.2383,-1.2453,-1.253,-1.2555,-1.2627,-1.2687,-1.2769,-1.2809,-1.2918,-1.2941,-1.2969,-1.298,-1.2969,-1.2966,-1.3005,-1.3,-1.2997,-1.2996,-1.2995,-1.2995,0,-1.1952,-1.2001,-1.2118,-1.2207,-1.2232,-1.2302,-1.238,-1.2445,-1.2489,-1.2587,-1.2612,-1.2683,-1.278,-1.2836,-1.2959,-1.2986,-1.3108,-1.3114,-1.308,-1.3085,-1.3143,-1.3137,-1.3317,-1.3344,-1.3212,-1.3213,-1.3214,0,-1.2024,-1.2092,-1.2187,-1.2238,-1.2285,-1.2368,-1.2425,-1.2471,-1.253,-1.2627,-1.2682,-1.2779,-1.286,-1.3014,-1.3079,-1.3173,-1.3183,-1.3239,-1.3198,-1.3185,-1.3187,-1.3183,-1.3192,-1.3247,-1.3249,-1.325,-1.325,0,-1.2147,-1.2167,-1.2246,-1.2333,-1.2399,-1.2471,-1.2543,-1.2585,-1.2644,-1.2709,-1.2806,-1.2868,-1.2992,-1.3089,-1.3189,-1.3241,-1.3257,-1.3262,-1.3281,-1.3273,-1.3251,-1.3266,-1.3102,-1.3259,-1.3258,-1.3257,-1.3257,-1.3257,-1.2229,-1.229,-1.2366,-1.2454,-1.2512,-1.2578,-1.2643,-1.2694,-1.2775,-1.2877,-1.29,-1.3004,-1.3085,-1.3219,-1.3273,-1.3357,-1.3348,-1.3375,-1.3383,-1.3389,-1.3392,-1.3234,-1.3375,-1.3375,-1.3374,-1.3374,-1.3374,0,-1.2355,-1.2404,-1.2483,-1.2581,-1.265,-1.2654,-1.2734,-1.2792,-1.2881,-1.2954,-1.3032,-1.3144,-1.3238,-1.3309,-1.3406,-1.346,-1.347,-1.3484,-1.3482,-1.3494,-1.3394,-1.3368,-1.3474,-1.3474,-1.3474,-1.3474,-1.3474,-1.3474,-1.2429,-1.2533,-1.2563,-1.2697,-1.2747,-1.2845,-1.2891,-1.2953,-1.3011,-1.3134,-1.3211,-1.3255,-1.3328,-1.343,-1.3518,-1.3536,-1.3573,-1.3586,-1.3606,-1.3512,-1.3501,-1.3491,-1.3468,-1.3593,-1.3593,-1.3701,-1.3702,-1.3702]},{"header":{"parameterUnit":"m.s-1","parameterCategory":1,"la1":30.2991,"la2":30.254,"lo1":-89.0895,"lo2":-89.0444,"dy":0.0017,"dx":0.0017,"nx":28,"ny":28,"refTime":"2026-01-04T03:00:00:Z","depth":0,"parameterNumber":3,"parameterNumberName":"V-component_of_WINDS"},"data":[0,0,0,0,0,0,0,0,0,0,0,0,0,0,0,0,0,0,0,0,0,0,0,0,0,0,0,0,0,0,0,0,0,0,0,0,0,0,0,0,0,0,0,0,0,0,0,0,0,0,0,0,0,0,0,0,0,0,-3.4056,-3.4056,0,-3.4065,-3.4065,-3.4065,-3.3996,-3.3994,-3.3992,-3.399,-3.3999,-3.4001,-3.4003,0,0,0,0,0,0,0,0,0,0,0,0,0,-3.3978,-3.398,-3.4056,-3.4056,-3.4056,-3.4065,-3.4065,-3.4065,-3.3996,-3.3994,-3.3992,-3.3989,-3.3998,-3.4001,-3.4003,0,0,0,0,0,0,0,0,0,0,0,0,0,-3.4002,-3.3981,-3.4056,-3.4023,-3.402,-3.4065,-3.4065,-3.4065,-3.3997,-3.3994,-3.3991,-3.3988,-3.3997,-3.4,-3.4003,-3.4081,0,0,-3.4013,-3.4014,0,0,0,0,0,0,0,0,-3.4001,-3.4005,-3.4028,-3.4025,-3.4022,-3.4026,-3.4041,-3.4071,-3.3998,-3.4006,-3.399,-3.3987,-3.401,-3.4012,-3.402,-3.4081,-3.4081,-3.4013,-3.4015,-3.4016,-3.4017,0,0,0,0,0,0,0,-3.3999,-3.4004,-3.406,-3.4028,-3.4025,-3.4007,-3.4008,-3.4046,-3.4024,-3.4005,-3.4,-3.4002,-3.4008,-3.4017,-3.402,-3.4081,-3.4013,-3.4016,-3.4018,-3.4019,-3.4206,-3.4209,0,0,0,0,0,0,-3.4002,-3.4003,-3.4059,-3.406,-3.4004,-3.4011,-3.4011,-3.4028,-3.4024,-3.402,-3.4004,-3.3998,-3.4014,-3.4016,-3.402,-3.4111,-3.4016,-3.4019,-3.4021,-3.4203,-3.4207,-3.421,0,0,0,0,0,0,-3.4001,-3.4008,-3.4059,-3.403,-3.4035,-3.4016,-3.4035,-3.403,-3.4039,-3.4023,-3.4019,-3.4018,-3.4011,-3.4016,-3.4066,-3.411,-3.402,-3.4023,-3.42,-3.4204,-3.4209,-3.4293,0,0,0,0,0,0,-3.3999,-3.4008,-3.4037,-3.4032,-3.4037,-3.4106,-3.4038,-3.4032,-3.4044,-3.4037,-3.4035,-3.4032,-3.401,-3.4062,-3.4069,-3.4113,-3.4026,-3.4196,-3.4202,-3.4207,-3.4286,-3.43,-3.4311,0,0,0,0,0,-3.3996,-3.406,-3.4039,-3.4046,-3.4074,-3.4108,-3.4112,-3.4085,-3.4048,-3.4078,-3.4067,-3.4032,-3.4104,-3.4068,-3.4075,-3.412,-3.4193,-3.42,-3.4207,-3.428,-3.4297,-3.4311,0,0,0,0,0,0,-3.4071,-3.4059,-3.4035,-3.4099,-3.4105,-3.4096,-3.4133,-3.4104,-3.412,-3.4113,-3.4079,-3.4079,-3.4135,-3.4132,-3.4092,-3.4195,-3.4142,-3.4151,-3.4195,-3.4211,-3.4223,-3.4223,-3.4028,0,0,0,0,0,-3.4095,-3.4124,-3.4112,-3.4169,-3.4174,-3.4153,-3.4167,-3.4146,-3.4151,-3.4153,-3.4147,-3.4153,-3.4177,-3.4193,-3.4214,-3.4285,-3.4283,-3.4319,-3.4332,-3.4343,-3.4351,-3.4389,-3.4405,-3.4234,-3.4234,-3.4234,0,0,-3.4144,-3.4141,-3.4162,-3.4184,-3.4187,-3.4218,-3.4156,-3.4191,-3.4214,-3.4158,-3.4206,-3.4202,-3.4206,-3.4267,-3.4294,-3.4267,-3.4398,-3.4352,-3.436,-3.4363,-3.4398,-3.4414,-3.4428,-3.4239,-3.4238,-3.4237,0,0,-3.4251,-3.4252,-3.43,-3.4304,-3.4308,-3.4294,-3.4306,-3.4301,-3.4297,-3.4344,-3.4303,-3.4329,-3.4371,-3.4376,-3.4385,-3.4494,-3.4462,-3.4501,-3.4568,-3.4605,-3.4619,-3.4631,-3.467,-3.4685,-3.4509,-3.451,-3.451,0,-3.4312,-3.4358,-3.4328,-3.4367,-3.4378,-3.433,-3.4379,-3.4383,-3.4395,-3.4403,-3.4373,-3.4425,-3.4424,-3.4486,-3.4513,-3.4521,-3.4533,-3.4502,-3.4619,-3.4631,-3.4641,-3.4679,-3.4694,-3.4515,-3.4514,-3.4513,-3.4513,0,-3.4433,-3.4466,-3.4504,-3.4517,-3.4532,-3.4576,-3.4553,-3.4572,-3.4549,-3.4538,-3.4587,-3.4585,-3.4605,-3.4618,-3.4596,-3.4677,-3.466,-3.4625,-3.4571,-3.4663,-3.4698,-3.4712,-3.4522,-3.452,-3.4518,-3.4517,0,0,-3.4588,-3.4584,-3.4599,-3.4604,-3.4606,-3.463,-3.4671,-3.4691,-3.4709,-3.4718,-3.4752,-3.4789,-3.4756,-3.4765,-3.4744,-3.4776,-3.4864,-3.4737,-3.4737,-3.4762,-3.4954,-3.4981,-3.4998,-3.4842,-3.4845,-3.4847,-3.4953,0,-3.4693,-3.4764,-3.4739,-3.4811,-3.4841,-3.4795,-3.4831,-3.4836,-3.4827,-3.485,-3.4839,-3.4867,-3.4821,-3.4827,-3.4857,-3.4847,-3.4902,-3.4839,-3.4874,-3.4876,-3.4876,-3.5016,-3.5045,-3.5146,-3.4967,-3.4969,-3.4971,0,-3.4825,-3.4841,-3.4916,-3.4913,-3.4925,-3.4958,-3.4974,-3.4997,-3.5002,-3.4993,-3.5004,-3.4975,-3.5015,-3.4961,-3.5016,-3.4973,-3.4986,-3.4983,-3.4986,-3.499,-3.493,-3.5024,-3.5177,-3.5193,-3.4992,-3.499,-3.4988,0,-3.4932,-3.4971,-3.5022,-3.5028,-3.5025,-3.5049,-3.5049,-3.5051,-3.5065,-3.5079,-3.5088,-3.5106,-3.5117,-3.5132,-3.5109,-3.5071,-3.5168,-3.5111,-3.5162,-3.5163,-3.5185,-3.5184,-3.5344,-3.5192,-3.5191,-3.5191,-3.5191,0,-3.5052,-3.5101,-3.507,-3.5101,-3.5154,-3.5124,-3.5177,-3.5172,-3.5174,-3.5203,-3.5164,-3.5192,-3.516,-3.5185,-3.5167,-3.5216,-3.5221,-3.5215,-3.521,-3.5219,-3.522,-3.5228,-3.5221,-3.5195,-3.5194,-3.5194,-3.5193,0,-3.5181,-3.5162,-3.5214,-3.5208,-3.5207,-3.5247,-3.5241,-3.5269,-3.5257,-3.5295,-3.5302,-3.5283,-3.5311,-3.5289,-3.5316,-3.5304,-3.5369,-3.5353,-3.5368,-3.5364,-3.5416,-3.5412,-3.5587,-3.5609,-3.5442,-3.5444,-3.5445,0,-3.526,-3.5296,-3.5293,-3.5311,-3.5313,-3.5341,-3.5355,-3.5327,-3.5343,-3.5351,-3.5379,-3.5403,-3.5422,-3.5468,-3.5457,-3.5477,-3.5462,-3.5522,-3.5465,-3.5474,-3.5465,-3.5463,-3.5467,-3.5534,-3.5536,-3.5538,-3.5539,0,-3.5402,-3.5391,-3.5413,-3.5432,-3.5451,-3.5464,-3.5474,-3.5491,-3.5462,-3.5482,-3.551,-3.5524,-3.5552,-3.5577,-3.5594,-3.5593,-3.5562,-3.5557,-3.557,-3.5581,-3.5588,-3.5586,-3.5401,-3.5554,-3.5552,-3.5551,-3.555,-3.555,-3.5509,-3.5539,-3.5542,-3.5569,-3.5573,-3.5584,-3.5611,-3.5603,-3.5626,-3.5647,-3.5628,-3.5662,-3.5666,-3.5685,-3.5688,-3.5714,-3.5689,-3.5708,-3.5713,-3.5718,-3.5726,-3.5583,-3.5717,-3.5716,-3.5716,-3.5716,-3.5715,0,-3.565,-3.565,-3.5674,-3.569,-3.5711,-3.568,-3.5689,-3.5709,-3.574,-3.5746,-3.5764,-3.5797,-3.5821,-3.5812,-3.5833,-3.5856,-3.5842,-3.5862,-3.5861,-3.5861,-3.5747,-3.5734,-3.5873,-3.5873,-3.5873,-3.5873,-3.5873,-3.5873,-3.5726,-3.5776,-3.5766,-3.5818,-3.5817,-3.5851,-3.5859,-3.5869,-3.5874,-3.5912,-3.5932,-3.5926,-3.5926,-3.5947,-3.5967,-3.5964,-3.5974,-3.6,-3.5991,-3.5885,-3.5869,-3.5855,-3.5842,-3.6002,-3.6002,-3.6104,-3.6105,-3.6106]}]]